Cloud_Cover
64 64 56 56 44 44 36 24 12 8 0 0 0 0 0 0 0 0 8 8 8 8 8 8 8 8 8 12 12 12 12 12 64 80 68 48 44 36 32 24 24 48 76 92 92 92 92 88 80 88 88 88 56 32 20 12 8 0 0 0 8 12 12 8 0 8 12 8 12
64 56 48 36 20 8 8 0 0 0 0 0 0 0 0 0 0 20 36 32 24 24 24 24 32 32 32 32 48 68 76 48 76 68 48 20 20 12 12 24 32 44 68 92 92 92 92 92 92 92 92 92 92 68 48 32 24 20 8 0 12 12 12 8 12 12 12 12 20
8 20 24 12 0 0 0 0 0 0 0 0 0 0 0 0 0 24 64 76 80 88 80 68 64 64 64 64 76 68 64 56 76 68 44 12 24 24 32 44 44 36 44 68 88 92 92 92 92 92 92 92 92 92 88 64 64 48 32 20 68 80 68 44 36 44 48 48 24
0 0 0 0 0 0 0 0 0 0 0 0 0 0 0 0 0 0 0 8 76 92 92 92 92 92 92 92 80 56 48 80 92 76 44 20 32 64 92 92 68 56 48 68 88 92 92 92 92 92 92 92 92 92 92 92 92 92 92 88 92 88 88 92 92 80 68 68 80
0 0 0 0 0 0 0 0 0 0 0 0 0 0 0 0 0 0 0 0 0 32 68 80 68 80 88 68 56 48 48 56 88 80 56 32 36 48 68 92 64 64 80 92 92 92 92 92 92 92 92 92 92 92 88 92 92 92 92 92 92 92 92 92 92 92 92 80 88
0 0 0 0 0 0 0 0 0 0 0 0 0 8 8 8 0 0 0 0 0 0 8 36 56 32 0 8 0 8 12 24 32 44 56 36 20 24 32 44 48 48 64 80 92 92 92 92 92 92 92 92 92 92 92 92 92 92 92 92 92 92 92 92 92 92 92 92 92
0 0 0 0 0 0 0 0 0 0 0 0 0 0 0 0 0 0 0 0 0 0 0 0 0 0 0 0 0 0 0 0 0 24 56 56 36 32 36 44 36 48 68 92 92 92 92 92 92 92 92 92 92 92 92 92 92 92 92 92 92 92 92 92 92 92 92 92 92
0 0 0 0 0 0 0 0 0 0 0 0 0 0 0 0 8 8 0 0 0 0 0 0 0 0 0 0 0 0 0 0 0 24 64 92 68 48 36 36 36 68 92 92 92 92 92 92 92 92 92 92 92 92 92 92 92 92 92 92 92 92 92 92 92 92 92 92 92
0 0 0 0 0 0 0 0 0 0 0 0 12 12 20 24 20 8 0 0 0 0 0 0 0 0 0 0 0 0 0 8 32 44 56 88 92 76 44 36 80 92 92 92 92 92 92 92 92 92 92 88 92 92 92 92 92 92 92 92 92 92 92 92 92 92 92 92 92
8 0 0 0 0 0 0 0 0 0 0 20 24 32 36 44 36 36 36 32 20 8 0 0 0 0 0 0 0 0 8 24 44 76 92 92 92 92 92 92 92 92 92 92 92 92 92 92 92 92 92 92 92 92 92 92 92 92 88 76 68 80 92 92 92 92 92 92 92
0 0 0 0 0 0 0 0 8 8 8 8 0 12 36 56 56 64 64 44 20 8 0 0 0 8 8 0 0 0 8 36 80 92 92 92 92 92 92 92 92 92 92 92 92 92 92 92 92 92 92 92 92 92 92 92 92 92 88 80 92 92 92 92 92 92 92 92 92
0 0 0 0 0 0 0 0 8 8 0 0 0 0 0 0 24 56 68 36 8 0 0 0 8 12 12 12 12 12 24 64 76 88 92 92 92 92 92 92 92 92 92 92 92 92 92 92 92 92 92 92 92 92 92 92 92 92 92 92 92 92 92 92 92 92 92 92 92
0 0 0 0 0 0 0 12 12 8 0 0 0 0 0 0 0 32 48 24 8 0 0 0 0 0 0 8 36 64 80 92 68 76 92 92 92 92 92 92 92 92 92 92 92 92 92 92 92 92 92 92 92 92 92 92 92 92 92 92 92 92 92 92 92 92 92 92 92
0 0 0 0 8 8 12 20 12 8 0 0 0 0 0 0 0 12 32 24 12 12 8 8 8 8 8 8 48 80 92 92 92 92 92 92 92 92 92 92 92 92 92 92 92 92 88 80 80 88 88 88 92 92 92 92 92 92 92 92 92 92 92 92 92 92 92 92 92
8 8 8 8 12 20 12 12 0 0 0 0 0 0 0 0 0 0 12 20 20 20 20 32 48 44 44 48 68 80 92 88 92 92 92 88 92 92 92 92 92 92 92 92 88 80 76 56 56 68 88 88 92 92 92 92 92 92 92 92 92 92 92 92 92 92 92 92 92
8 8 8 12 8 8 0 0 0 0 0 0 0 0 0 0 0 0 0 8 20 32 44 68 88 88 88 92 88 80 76 68 88 92 92 92 92 92 92 76 76 80 88 92 88 88 88 68 76 88 92 92 92 92 92 92 92 92 92 92 92 92 92 92 92 92 92 92 92
0 0 0 0 0 0 0 0 0 0 0 0 0 0 0 0 0 0 0 8 12 32 64 92 92 92 92 76 76 68 56 56 76 88 92 92 92 92 88 68 68 68 76 92 92 92 92 92 92 92 92 92 92 88 88 88 92 92 92 92 92 92 92 92 92 92 92 92 92
0 0 0 0 0 0 0 0 0 0 0 0 8 8 8 8 0 0 0 0 20 36 56 76 76 80 68 44 36 32 32 32 32 48 76 92 92 76 48 56 64 64 68 80 88 92 92 92 92 92 92 80 80 80 88 88 92 92 92 92 92 92 92 92 92 92 92 92 92
0 0 0 0 0 0 0 0 0 8 20 20 24 24 24 20 8 0 0 0 20 48 68 68 76 76 56 24 12 8 0 0 0 8 24 36 36 20 8 8 12 24 32 36 68 88 92 92 80 80 76 68 76 88 92 92 88 88 92 92 92 92 92 92 92 92 92 92 92
0 0 0 0 0 0 0 8 20 32 44 32 36 32 24 12 8 0 8 12 32 56 80 88 80 68 48 12 0 0 0 0 0 0 0 0 0 0 0 0 0 0 8 0 20 32 44 56 56 56 64 68 76 80 80 88 80 80 80 80 88 88 92 92 92 92 92 92 92
0 0 0 0 8 12 24 32 44 48 48 32 36 32 20 12 12 20 32 56 76 80 88 88 68 56 36 12 0 0 0 0 0 0 0 0 0 0 0 0 0 0 0 0 0 0 0 12 32 44 64 76 76 76 76 76 76 76 80 88 88 92 92 92 92 92 92 92 92
0 0 8 24 36 44 44 56 64 64 48 44 56 48 44 48 68 76 80 88 92 92 88 68 48 36 20 8 0 0 0 0 0 12 20 20 12 8 0 0 0 0 0 0 0 0 0 0 36 64 76 88 88 88 88 88 88 88 88 92 92 92 92 92 92 88 88 88 88
0 20 36 48 44 44 44 56 80 88 80 80 88 88 80 88 92 92 92 92 76 68 64 48 32 12 0 0 0 0 0 0 12 36 56 48 32 20 8 0 0 0 0 0 0 0 0 0 44 56 64 76 76 76 76 76 76 80 80 92 92 80 76 88 80 80 88 88 88
12 32 44 56 48 48 56 64 88 92 92 92 92 80 68 64 68 68 68 68 56 44 32 12 8 0 0 0 0 0 0 0 32 64 80 76 56 44 24 8 0 0 0 0 0 0 0 0 8 12 12 12 44 48 48 48 56 56 64 64 76 76 76 76 76 76 80 80 88
12 32 36 36 48 56 64 64 68 76 76 64 64 56 48 44 48 48 56 48 36 20 8 0 0 0 0 0 0 0 8 20 48 76 92 88 80 64 44 24 8 0 0 0 0 0 0 0 0 0 0 0 32 48 64 56 64 64 64 64 68 68 68 68 76 80 88 88 88
0 0 8 20 36 48 56 44 48 48 48 48 56 68 68 64 56 48 36 32 20 8 0 0 0 0 0 0 8 24 36 56 68 80 92 92 88 68 44 24 8 0 0 0 0 0 0 0 0 0 0 0 8 20 32 56 56 64 68 68 48 48 48 44 48 56 64 64 68
0 0 0 8 24 64 80 64 64 64 56 48 76 88 88 64 56 48 36 12 8 0 0 0 0 0 8 20 32 36 48 64 64 68 76 76 76 64 44 32 20 12 8 8 0 0 0 0 8 12 12 12 12 8 8 8 8 8 12 24 36 44 36 32 32 32 36 32 32
8 12 12 24 32 64 88 68 24 8 0 0 0 12 32 64 68 64 48 32 20 8 8 12 8 20 36 56 44 36 44 48 44 44 48 44 44 44 44 36 24 24 24 20 20 12 12 20 20 12 12 12 12 12 12 12 12 12 12 24 12 24 36 32 32 32 32 32 24
12 12 12 0 0 0 0 0 0 0 0 0 0 0 0 0 0 0 0 8 12 20 24 32 56 68 64 44 32 24 24 32 32 36 44 48 48 64 80 76 48 44 36 32 32 24 24 32 24 24 20 12 8 0 0 12 12 12 12 12 12 8 0 0 0 0 8 12 24
0 0 0 0 0 0 0 0 0 0 0 0 0 0 0 0 0 0 8 20 24 36 48 64 64 56 44 36 36 44 48 56 64 68 64 56 64 76 76 48 24 24 32 36 44 44 44 32 24 20 12 8 8 8 0 0 0 0 8 8 8 12 8 8 8 0 0 0 0
0 0 0 0 0 0 0 0 0 0 0 0 0 0 0 0 8 20 36 68 68 76 76 64 36 36 44 48 56 68 80 92 68 56 44 44 48 48 36 12 0 0 8 20 32 32 24 24 20 20 12 12 12 12 12 8 8 8 0 0 0 0 0 0 0 0 0 0 0
0 0 0 0 0 0 0 0 0 0 0 0 0 0 0 0 8 20 36 64 80 80 68 36 24 24 32 36 48 64 80 88 76 64 56 56 56 36 20 0 0 0 0 8 0 0 0 8 12 12 12 8 8 8 8 8 0 0 0 0 0 0 0 0 0 0 0 0 0
0 0 0 0 0 0 0 0 0 0 0 0 0 0 0 0 0 20 36 56 80 80 68 48 36 36 36 44 56 64 68 76 68 64 56 44 20 8 0 0 0 0 0 0 0 0 0 0 0 0 0 0 0 0 0 0 0 0 0 0 0 0 0 0 0 0 0 0 0
0 0 0 0 0 0 0 0 0 0 0 0 0 0 0 0 20 32 48 80 88 92 88 64 64 68 76 80 80 76 64 56 44 32 20 8 0 0 0 0 0 0 0 0 0 0 0 0 0 0 0 0 0 0 0 0 0 0 0 0 0 0 0 0 0 0 0 0 0
0 0 0 0 0 0 0 0 0 0 0 0 0 0 0 8 12 20 24 36 68 80 88 88 88 80 76 64 48 44 36 24 24 12 8 0 0 0 0 0 0 0 8 8 8 8 0 0 0 0 8 12 8 8 0 0 0 0 0 0 0 0 0 0 0 0 0 0 0
0 0 0 0 0 0 0 0 0 0 0 0 0 0 0 0 0 0 0 0 24 44 64 64 64 56 44 32 24 20 12 12 12 8 0 0 0 0 0 0 0 12 32 36 24 20 20 12 8 8 12 32 32 32 24 12 0 0 0 0 0 0 0 0 0 0 0 0 0
0 0 0 0 0 0 0 0 0 0 0 0 0 0 0 0 0 0 0 0 0 0 12 36 36 32 24 8 0 0 0 8 8 8 0 0 0 0 0 0 0 20 44 68 48 36 24 20 12 8 12 20 32 36 32 20 0 0 0 0 0 0 0 0 0 0 0 0 0
0 0 0 0 0 0 0 0 0 0 0 0 0 0 0 0 0 0 0 0 0 0 8 24 24 24 20 12 12 12 20 24 32 24 20 12 8 0 0 8 12 20 32 64 48 36 24 12 12 8 0 0 12 20 20 0 0 0 0 0 0 0 0 0 0 0 0 0 0
0 0 0 0 0 0 0 0 0 0 0 0 0 0 0 0 0 0 0 0 0 0 12 36 36 36 36 44 44 44 44 48 48 48 44 36 36 20 12 24 36 36 32 32 24 12 8 0 0 0 0 0 0 0 0 0 0 0 0 0 0 0 0 0 0 0 0 0 0
0 0 0 0 0 0 0 0 0 0 0 0 0 0 0 0 8 20 20 12 12 20 32 44 48 48 48 56 64 56 48 48 48 48 48 48 56 44 36 56 48 44 36 44 32 20 8 0 0 0 0 0 0 0 0 0 0 0 0 0 0 0 0 0 0 0 0 0 0
0 0 0 0 0 0 0 0 0 0 0 0 0 0 0 0 20 32 32 24 20 32 44 56 48 44 48 56 56 48 44 36 44 48 56 56 68 68 64 64 56 48 36 32 24 20 20 12 8 0 0 0 0 8 12 12 8 8 0 0 0 0 0 0 0 0 0 0 0